Home   Weather   Bodø   Past weeks

Flag for Norway Past Weather in Bodø, Norway — Yesterday and Last 2 Weeks

Now
34 °F

Passing clouds.


Feels Like: 30 °F
Forecast: 40 / 44 °F
Wind: 5 mph from North

Location: Bodo Vi

Current Time: Dec 6, 2016 at 1:56:56 am

Latest Report: Dec 6, 2016 at 12:50 am


Visibility: N/A

Pressure: 30.07 "Hg

Humidity: 81%

Dew Point: 28 °F

Location of BodøLocation

Past Weather in Bodø — Graph

°F

Bodø Temperature Yesterday

Maximum temperature yesterday: 41 °F (at 1:50 am)
Minimum temperature yesterday: 34 °F (at 10:50 am)
Average temperature yesterday: 37 °F

High & Low Weather Summary for the Past Weeks

 TemperatureHumidityPressure
High46 °F (Nov 29, 10:20 am)100% (Nov 22, 6:20 am)30.21 "Hg (Nov 22, 6:20 am)
Low25 °F (Dec 3, 12:50 pm)41% (Nov 27, 5:50 am)29.12 "Hg (Nov 29, 10:50 pm)
Average37 °F84%29.69 "Hg
* Reported Nov 20 11:20 pm — Dec 5 11:50 pm, Bodø, Weather by CustomWeather, © 2016

Note: Actual official high and low records may vary slightly from our data, if they occured in-between our weather recording intervals... More about our weather records

Advertising

Bodø Weather History for the Previous 24 Hours

Scroll right to see more
 ConditionsComfort  
Time TempWeatherWind HumidityBarometerVisibility
11:50 pm
Mon, Dec 5
36 °FScattered showers. Passing clouds.8 mph81%30.07 "HgN/A
11:20 pm37 °FScattered showers. Passing clouds.10 mph70%30.07 "HgN/A
10:50 pm37 °FPassing clouds.12 mph70%30.04 "HgN/A
10:20 pm36 °FSnow flurries. Partly cloudy.10 mph81%30.04 "HgN/A
9:50 pm36 °FSprinkles. Partly cloudy.12 mph87%30.04 "HgN/A
9:20 pm34 °FPartly cloudy.5 mph93%30.04 "HgN/A
8:50 pm34 °FScattered showers. Passing clouds.6 mph87%30.01 "HgN/A
8:20 pm37 °FScattered showers. Partly cloudy.13 mph81%30.01 "HgN/A
7:50 pm37 °FPassing clouds.9 mph75%30.01 "HgN/A
7:20 pm37 °FPassing clouds.9 mph75%29.98 "HgN/A
6:50 pm37 °FScattered showers. Partly cloudy.15 mph81%29.98 "HgN/A
6:20 pm34 °FScattered showers. Partly cloudy.9 mph93%29.98 "HgN/A
5:50 pm36 °FPassing clouds.8 mph87%29.95 "HgN/A
5:20 pm34 °FScattered showers. Passing clouds.12 mph93%29.95 "HgN/A
4:50 pm37 °FSprinkles. Partly cloudy.15 mph81%29.92 "HgN/A
4:20 pm37 °FScattered showers. Passing clouds.15 mph75%29.89 "HgN/A
3:50 pm37 °FScattered showers. Passing clouds.16 mph75%29.89 "HgN/A
3:20 pm39 °FScattered showers. Partly cloudy.18 mph70%29.86 "HgN/A
2:50 pm37 °FSnow showers. Partly cloudy.20 mph75%29.86 "HgN/A
2:20 pm37 °FScattered showers. Passing clouds.16 mph70%29.86 "HgN/A
1:50 pm37 °FScattered showers. Partly cloudy.21 mph70%29.83 "HgN/A
1:20 pm39 °FScattered showers. Partly cloudy.20 mph65%29.80 "HgN/A
12:50 pm37 °FScattered showers. Scattered clouds.20 mph75%29.80 "HgN/A
12:20 pm37 °FScattered showers. Scattered clouds.15 mph81%29.80 "HgN/A
11:50 am37 °FScattered showers. Partly sunny.9 mph81%29.77 "HgN/A
11:20 am37 °FSnow flurries. Broken clouds.17 mph87%29.77 "HgN/A
10:50 am34 °FScattered clouds.9 mph93%29.77 "HgN/A
10:20 am37 °FSleet. Partly cloudy.20 mph81%29.74 "HgN/A
9:50 am39 °FScattered showers. Passing clouds.16 mph75%29.71 "HgN/A
9:20 am36 °FScattered showers. Passing clouds.16 mph87%29.71 "HgN/A
8:50 am39 °FScattered showers. Partly cloudy.25 mph75%29.71 "HgN/A
8:20 am39 °FScattered showers. Partly cloudy.16 mph75%29.68 "HgN/A
7:50 am37 °FPassing clouds.13 mph81%29.68 "HgN/A
7:20 am39 °FScattered showers. Passing clouds.17 mph70%29.65 "HgN/A
6:50 am39 °FPassing clouds.16 mph70%29.65 "HgN/A
6:20 am39 °FPassing clouds.16 mph70%29.62 "HgN/A
5:50 am39 °FScattered showers. Partly cloudy.16 mph70%29.62 "HgN/A
5:20 am39 °FScattered showers. Partly cloudy.20 mph70%29.59 "HgN/A
4:50 am39 °FPartly cloudy.16 mph70%29.59 "HgN/A
3:50 am41 °FPassing clouds.23 mph53%29.56 "HgN/A
2:50 am39 °FPartly cloudy.20 mph70%29.53 "HgN/A
1:50 am41 °FPartly cloudy.23 mph61%29.50 "HgN/A
Weather by CustomWeather, © 2016

See weather overviewHow to use our weather pages